Regional Weather Roundup
Issued by NWS Sterling, VA

Current Version | Previous Version | Text Only | Print | Product List | Glossary On
Versions: 1 2 3 4 5 6 7 8 9 10 11 12 13 14 15 16 17 18 19 20 21 22 23 24 25 26 27
000
ASUS41 KLWX 260810
RWRLWX

REGIONAL WEATHER ROUNDUP
NATIONAL WEATHER SERVICE BALTIMORE MD/WASHINGTON DC
400 AM EDT SUN OCT 26 2014

Note: "FAIR" indicates few or no clouds below 12,000 feet
with no significant weather and/or obstructions to visibility.
 TC=TEMPERATURE CELSIUS

 * =Non NWS site. Station does not report precipitation (e.g. rain,
    snow, etc.), thunder, or fog.

DCZ001-MDZ009-015-VAZ040>042-051-053>054-260900-
WASHINGTON METRO

CITY           SKY/WX    TMP DP  RH WIND       PRES   REMARKS
WASHINGTON NAT PTCLDY    66  41  40 W15G25    29.70R
DULLES         PTCLDY    63  40  42 NW25G35   29.70S
ANDREWS AFB    CLEAR     59  44  57 W14G21    29.68S
FT BELVOIR     CLEAR     45  44  95 S2        29.71R
QUANTICO       CLEAR     50  46  86 NW6       29.72R
COLLEGE PARK*  CLEAR     48  46  93 CALM      29.69R
LEESBURG*      PTCLDY    63  45  51 NW16      29.71R
MANASSAS*      CLEAR     45  45 100 CALM      29.72R
GAITHERSBURG*  PTCLDY    61  39  44 NW12G20   29.73R

$$

MDZ006>007-011-014-260900-
BALTIMORE METRO

CITY           SKY/WX    TMP DP  RH WIND       PRES   REMARKS
BWI AIRPORT    PTCLDY    51  45  79 W7        29.67R
MD SCIENCE CTR   N/A     58  46  64 MISG      29.68R
MARTIN STATE   CLEAR     61  46  59 W8        29.68R
ANNAPOLIS      CLEAR     54  45  71 CALM      29.68R
FORT MEADE*    CLEAR     45  43  93 CALM      29.71R

$$

MDZ012-015-019>023-260900-
MARYLAND EASTERN SHORE

CITY           SKY/WX    TMP DP  RH WIND       PRES   REMARKS
OCEAN CITY     CLEAR     56  48  74 W7        29.66S
SALISBURY      CLEAR     57  49  74 W7        29.67S
BAY BRIDGE AP*   N/A     59  48  67 W8        29.68R
CAMBRIDGE*     CLEAR     55  46  71 W5        29.67S
EASTON*        PTCLDY    62  51  67 NW8       29.71R

$$

MDZ017>025-260900-
SOUTHERN MARYLAND

CITY           SKY/WX    TMP DP  RH WIND       PRES   REMARKS
PATUXENT RIVER MOCLDY    56  46  69 W10       29.68S
ST INIGOES     PTCLDY    58  45  62 W9        29.68F
LEONARDTOWN*   PTCLDY    54  45  71 W5        29.70S

$$

MDZ003>005-260900-
NORTH CENTRAL MARYLAND

CITY           SKY/WX    TMP DP  RH WIND       PRES   REMARKS
FREDERICK*     CLEAR     64  34  32 NW9       29.73S
HAGERSTOWN APT CLEAR     58  32  37 NW16G25   29.71R
WESTMINSTER*   CLEAR     61  36  39 NW8G20    29.69S

$$

MDZ501>502-260900-
WESTERN MARYLAND

CITY           SKY/WX    TMP DP  RH WIND       PRES   REMARKS
OAKLAND*       CLEAR     45  23  42 NW10G17   29.81S
CUMBERLAND*    CLEAR     59  32  36 NW6       29.81R

$$

VAZ025>031-260900-
SHENANDOAH VALLEY

CITY           SKY/WX    TMP DP  RH WIND       PRES   REMARKS
WINCHESTER*    CLEAR     61  27  27 NW18      29.74R
FRONT ROYAL*   FAIR      61  39  44 NW7       29.72S
LURAY*         FAIR      64  32  29 NW13G25   29.74S
NEW MARKET*    FAIR      53  36  54 N3        29.75F
STAUNTON*      CLEAR     62  34  35 NW8       29.78F
WAYNESBORO*    FAIR      60  38  44 NW3       29.77S

$$

WVZ021-048>050-054>055-260900-
EASTERN WEST VIRGINIA PANHANDLE

CITY           SKY/WX    TMP DP  RH WIND       PRES   REMARKS
MARTINSBURG    CLEAR     61  30  31 NW15G24   29.74R
PETERSBURG*    CLEAR     59  30  33 N8        29.79R

$$

VAZ036>039-050-260900-
CENTRAL FOOTHILLS

CITY           SKY/WX    TMP DP  RH WIND       PRES   REMARKS
CHARLOTTESVILL CLEAR     60  43  53 VRB5      29.73F
CULPEPER*      CLEAR     45  45 100 CALM      29.72F
ORANGE*        CLEAR     54  45  71 CALM      29.73F
GORDONSVILLE*  FAIR      49  46  86 S5        29.72F
WARRENTON*     FAIR      50  48  93 W3        29.71S

$$

VAZ055>057-260900-
NORTH AND CENTRAL PIEDMONT

CITY           SKY/WX    TMP DP  RH WIND       PRES   REMARKS
FREDERICKSBRG* CLEAR     56  48  73 CALM      29.70F
STAFFORD*      CLEAR     51  45  79 CALM      29.75S

$$

NCZ024-NYZ072-PAZ021-071-VAZ022-071-260900-
OTHER REGIONAL OBSERVATIONS

CITY           SKY/WX    TMP DP  RH WIND       PRES   REMARKS
NEW YORK CITY  CLEAR     59  43  55 W6        29.58S
PHILADELPHIA   PTCLDY    57  49  74 W9        29.61S
PITTSBURGH     CLEAR     49  32  52 W7        29.80S
ROANOKE        PTCLDY    66  49  54 W14G31    29.82F
RICHMOND       CLEAR     58  47  66 W6        29.73F
RALEIGH        CLEAR     51  43  74 CALM      29.82F

$$

ANZ530>537-260900-
MARINE OBSERVATIONS

STATION/POSITION TIME  TEMP    WIND        PRES
                       AIR SEA DIR/SP/G
                 (UTC) (F)     (DEG/KT/KT) (MB)
THOMAS PT LIGHT  0800   59 62  270/ 10/ 10 1006.1R
BALT KEY BRIDGE  0800   63     260/ 15/ 17 1004.2R
COVE POINT       0800   59     280/ 11/ 13 1004.9R
LEWISETTA        0800   58 60  260/ 11/ 13 1004.9F
SOLOMONS ISLAND  0800      63                N/A
PINEY POINT      0800          300/  8/  9   N/A

$$




USA.gov is the U.S. government's official web portal to all federal, state and local government web resources and services.